Location: Colebrook
(42.0017°N, 73.0973°W)
Time: 06:30:00
(UTC-04:00)

Amateur Radio Satellites - All Passes

Search period start: 30 May 2015 06:00
Search period end: 31 May 2015 06:00
Location: Colebrook, 42.0017°N, 73.0973°W

Satellite Date Start Highest point End Downlink Frequencies (MHz)
Time Altitude Azimuth
Cosmos 2491 30 May 06:00:34 06:09:10 54° 75° (ENE) 06:17:45 435.465 / 435.565
Cubesat XI-IV 30 May 06:03:07 06:06:21 17° 89° (E) 06:09:49 437.490
AUBIESAT-1 30 May 06:04:31 06:06:11 13° 61° (ENE) 06:07:57 437.475
HORYU 2 30 May 06:12:02 06:14:15 13° 297° (WNW) 06:16:17 437.375
ISS 30 May 06:14:19 06:16:12 14° 228° (SW) 06:17:59 145.825
AIST 1 30 May 06:25:53 06:28:15 15° 68° (ENE) 06:30:48
RS-15 30 May 06:50:46 06:57:01 18° 101° (E) 07:04:05 29.354- 29.394
YUBILEINY 30 May 06:51:02 06:59:12 47° 89° (E) 07:07:27 435.215
AO-7 30 May 06:52:45 06:59:45 30° 303° (WNW) 07:06:32 29.400- 29.500
STRAND 1 30 May 06:58:16 07:03:22 82° 75° (ENE) 07:08:30 437.568
PHONESAT 2.4 30 May 07:04:40 07:07:14 19° 207° (SSW) 07:09:45 2401.200-2431.200
CUTE-I 30 May 07:19:54 07:25:18 82° 102° (ESE) 07:30:41 437.470
PRISM 30 May 07:24:17 07:28:10 41° 262° (W) 07:32:04 437.425
M-CUBED/EXP-1 PRIME 30 May 07:31:53 07:35:57 55° 254° (WSW) 07:39:43 437.505
CUBESAT XI-V 30 May 07:33:05 07:36:27 19° 269° (W) 07:39:41 437.345
PCSat 30 May 07:33:22 07:35:38 13° 35° (NE) 07:38:07 145.827
AUBIESAT-1 30 May 07:36:40 07:40:41 56° 254° (WSW) 07:44:25 437.475
Cubesat XI-IV 30 May 07:41:40 07:47:00 65° 288° (WNW) 07:52:19 437.490
Cosmos 2491 30 May 07:58:02 08:05:43 34° 275° (W) 08:13:10 435.465 / 435.565
GOMX 1 30 May 08:00:02 08:02:31 14° 85° (E) 08:05:13 467.674
AIST 1 30 May 08:02:01 08:06:18 51° 266° (W) 08:10:34
BRITE-PL 30 May 08:13:57 08:18:52 31° 93° (E) 08:23:35 437.365/2234.400
STRAND 1 30 May 08:41:26 08:43:20 12° 273° (W) 08:44:54 437.568
DOVE 4 30 May 08:42:26 08:46:17 22° 90° (E) 08:50:04 437.250
YUBILEINY 30 May 08:48:07 08:56:14 39° 290° (WNW) 09:04:12 435.215
RS-15 30 May 08:56:56 09:07:47 81° 120° (ESE) 09:19:00 29.354- 29.394
CUTE-I 30 May 09:01:48 09:04:46 15° 300° (WNW) 09:07:30 437.470
PCSat 30 May 09:14:54 09:20:17 61° 56° (ENE) 09:25:39 145.827
UNISAT 6 30 May 09:22:21 09:24:56 15° 64° (ENE) 09:27:41 437.425
CANX-2 30 May 09:23:13 09:27:23 58° 100° (E) 09:31:32 2200.000
HO-68 30 May 09:24:05 09:31:07 57° 101° (E) 09:38:08 435.675
CUTE 1.7 + AOD 2 30 May 09:26:13 09:30:22 56° 100° (E) 09:34:30 437.475
SO-50 30 May 09:28:49 09:31:15 14° 33° (NNE) 09:33:50 436.795
CINEMA 3 30 May 09:30:52 09:35:00 31° 95° (E) 09:38:59 145.822/145.860
GOMX 1 30 May 09:36:03 09:41:24 73° 284° (WNW) 09:46:22 467.674
Cosmos 2504 30 May 09:37:27 09:45:25 56° 92° (E) 09:52:55 435.465 / 435.565
SEEDS 30 May 09:43:03 09:47:14 72° 101° (E) 09:51:24 437.485
ZACube-1 30 May 09:45:14 09:47:07 13° 88° (E) 09:49:10 437.345
Oscar 11 30 May 09:48:01 09:51:33 25° 94° (E) 09:55:10 145.826/435.025
COMPASS 1 30 May 09:50:25 09:54:34 70° 101° (E) 09:58:42 437.405
BRITE-PL 30 May 09:52:15 09:57:24 37° 291° (WNW) 10:02:14 437.365/2234.400
CUBEBUG 2 30 May 09:58:08 10:01:59 29° 95° (E) 10:05:45 437.445
AAUSAT CUBESAT 2 30 May 09:59:24 10:03:33 76° 102° (ESE) 10:07:41 437.432
DELFI C3 30 May 10:02:42 10:06:02 25° 94° (E) 10:09:25 145.870
ANTELSAT 30 May 10:03:50 10:08:08 38° 71° (ENE) 10:12:26 437.575/2403.000
QB50P1 30 May 10:15:01 10:18:17 22° 68° (ENE) 10:21:40 145.935-145.965
POLYITAN 1 30 May 10:18:53 10:22:20 25° 68° (ENE) 10:25:54 437.675
DOVE 4 30 May 10:19:30 10:24:16 41° 290° (WNW) 10:28:44 437.250
TIGRISAT 30 May 10:34:29 10:39:10 77° 76° (ENE) 10:43:47 435.000
UWE-3 30 May 10:37:22 10:41:43 64° 100° (E) 10:45:55 435.000/436.395/437.385
FUNcube-1 30 May 10:37:32 10:41:42 48° 98° (E) 10:45:46 145.935
HUMSAT D 30 May 10:44:01 10:47:28 26° 94° (E) 10:50:56 437.325/437.525
NANOSAT C BR1 30 May 10:44:04 10:48:07 44° 72° (ENE) 10:52:14 145.865
50 SAT 30 May 10:49:43 10:52:01 15° 91° (E) 10:54:26 437.505
AISAT 30 May 10:53:59 10:57:04 18° 92° (E) 11:00:16 437.250
QB50P2 30 May 10:54:42 10:58:55 60° 74° (ENE) 11:03:11 145.880/145.840
UNISAT 6 30 May 10:56:40 11:01:18 61° 259° (W) 11:05:53 437.425
PCSat 30 May 10:59:27 11:03:17 19° 253° (WSW) 11:06:54 145.827
CANX-2 30 May 11:00:48 11:02:53 13° 295° (WNW) 11:04:49 2200.000
CUTE 1.7 + AOD 2 30 May 11:03:41 11:05:52 14° 295° (WNW) 11:07:53 437.475
DUCHIFAT 1 30 May 11:04:48 11:09:03 74° 75° (ENE) 11:13:21 145.980
POPSAT HIP 1 30 May 11:05:56 11:10:13 78° 76° (ENE) 11:14:33 437.405
SO-50 30 May 11:07:51 11:12:49 66° 54° (NE) 11:17:41 436.795
CINEMA 3 30 May 11:08:11 11:12:06 26° 292° (WNW) 11:15:47 145.822/145.860
BUGSAT 1 30 May 11:11:13 11:15:18 59° 74° (ENE) 11:19:30 437.445
RS-15 30 May 11:11:36 11:21:32 36° 327° (NNW) 11:31:40 29.354- 29.394
HO-68 30 May 11:12:27 11:18:30 30° 299° (WNW) 11:24:24 435.675
UKube-1 30 May 11:13:36 11:17:51 52° 100° (E) 11:22:07 .
GOMX 1 30 May 11:17:38 11:18:33 10° 302° (WNW) 11:19:10 467.674
ZACube-1 30 May 11:19:43 11:23:56 54° 286° (WNW) 11:28:01 437.345
SEEDS 30 May 11:21:22 11:22:31 11° 297° (WNW) 11:23:26 437.485
Oscar 11 30 May 11:24:00 11:27:44 29° 291° (WNW) 11:31:25 145.826/435.025
GONETS M04 30 May 11:24:24 11:29:04 17° 78° (ENE) 11:34:19
DANDE 30 May 11:24:27 11:28:51 17° 79° (E) 11:34:00 436.750
DX 1 30 May 11:27:48 11:32:13 81° 103° (ESE) 11:36:36 434.975-435.025
COMPASS 1 30 May 11:28:29 11:29:44 11° 297° (WNW) 11:30:46 437.405
CUSAT 1 30 May 11:29:02 11:34:47 24° 83° (E) 11:41:09 437.405
Cosmos 2504 30 May 11:32:10 11:39:12 30° 291° (WNW) 11:45:42 435.465 / 435.565
CUBEBUG 2 30 May 11:34:56 11:38:36 25° 292° (WNW) 11:42:04 437.445
DELFI C3 30 May 11:37:46 11:41:06 25° 291° (WNW) 11:44:23 145.870
AAUSAT CUBESAT 2 30 May 11:38:09 11:38:37 10° 297° (WNW) 11:38:52 437.432
ANTELSAT 30 May 11:41:22 11:45:03 22° 267° (W) 11:48:36 437.575/2403.000
CUBEBUG 1 30 May 11:44:06 11:48:04 32° 96° (E) 11:52:04 437.445
QB50P1 30 May 11:50:04 11:53:59 34° 264° (W) 11:57:54 145.935-145.965
POLYITAN 1 30 May 11:54:18 11:58:08 30° 264° (W) 12:01:57 437.675
VELOX 1 30 May 11:56:22 12:00:53 83° 103° (ESE) 12:05:21 145.980
SPROUT 30 May 12:09:22 12:12:05 17° 91° (E) 12:14:56 437.525
ESTCUBE 1 30 May 12:13:52 12:18:26 77° 103° (ESE) 12:22:58 437.505/2401.250
FUNcube-1 30 May 12:15:02 12:17:40 16° 295° (WNW) 12:20:06 145.935
TIGRISAT 30 May 12:15:12 12:16:31 11° 273° (W) 12:17:31 435.000
UWE-3 30 May 12:15:46 12:17:44 13° 297° (WNW) 12:19:30 435.000/436.395/437.385
TISAT 1 30 May 12:18:19 12:20:36 15° 90° (E) 12:23:05 437.305
HUMSAT D 30 May 12:19:42 12:23:11 26° 291° (WNW) 12:26:34 437.325/437.525
Oscar 19 30 May 12:20:50 12:24:35 21° 64° (ENE) 12:28:29 437.125/150
NANOSAT C BR1 30 May 12:21:24 12:24:13 17° 269° (W) 12:26:54 145.865
50 SAT 30 May 12:23:19 12:26:55 37° 288° (WNW) 12:30:28 437.505
AISAT 30 May 12:29:37 12:33:53 42° 289° (WNW) 12:38:06 437.250
QB50P2 30 May 12:33:25 12:35:17 12° 272° (W) 12:36:55 145.880/145.840
ITAMSAT 1 30 May 12:46:12 12:47:19 11° 58° (ENE) 12:48:44 435.822/435.867
BUGSAT 1 30 May 12:49:35 12:51:16 12° 272° (W) 12:52:43 437.445
SO-50 30 May 12:49:45 12:52:54 16° 250° (WSW) 12:55:49 436.795
UKube-1 30 May 12:50:55 12:53:37 16° 296° (WNW) 12:56:09 .
DANDE 30 May 13:03:18 13:10:49 81° 98° (E) 13:19:27 436.750
DX 1 30 May 13:06:39 13:07:53 11° 299° (WNW) 13:08:53 434.975-435.025
CUSAT 1 30 May 13:08:59 13:16:42 77° 282° (WNW) 13:25:06 437.405
GONETS M04 30 May 13:15:54 13:24:44 84° 96° (E) 13:33:38
CUBEBUG 1 30 May 13:20:39 13:24:19 25° 292° (WNW) 13:27:54 437.445
ITUPSAT 1 30 May 13:21:52 13:23:26 12° 87° (E) 13:25:18 437.325
BEESAT 30 May 13:26:29 13:28:45 14° 89° (E) 13:31:16 436.000
RS-15 30 May 13:30:15 13:38:30 22° 1° (N) 13:47:01 29.354- 29.394
SWISSCUBE 30 May 13:34:51 13:38:05 18° 91° (E) 13:41:28 437.505
VELOX 1 30 May 13:35:31 13:36:50 11° 299° (WNW) 13:37:55 145.980
Gurwin Techsat 1B 30 May 13:42:07 13:46:46 33° 68° (ENE) 13:51:32 435.225
SPROUT 30 May 13:44:18 13:48:27 44° 288° (WNW) 13:52:32 437.525
TISAT 1 30 May 13:52:35 13:56:44 49° 288° (WNW) 14:00:50 437.305
ESTCUBE 1 30 May 13:52:57 13:54:44 12° 298° (WNW) 13:56:19 437.505/2401.250
Cosmos 2499 30 May 13:57:30 14:03:58 29° 87° (E) 14:10:17 435.465 / 435.565
Oscar 19 30 May 13:58:33 14:03:36 52° 260° (W) 14:08:41 437.125/150
O/OREOS (USA 219) 30 May 14:00:16 14:02:18 13° 100° (E) 14:04:34 437.305
AO-7 30 May 14:08:49 14:14:41 23° 53° (NE) 14:20:50 29.400- 29.500
ITAMSAT 1 30 May 14:20:54 14:26:03 78° 73° (ENE) 14:31:16 435.822/435.867
JAS-2 30 May 14:27:26 14:31:45 21° 64° (ENE) 14:35:58 435.910
DANDE 30 May 14:48:50 14:55:12 25° 300° (WNW) 15:01:47 436.750
CUSAT 1 30 May 14:55:30 15:00:57 18° 303° (WNW) 15:06:10 437.405
ITUPSAT 1 30 May 14:57:10 15:01:58 74° 285° (WNW) 15:06:45 437.325
STARS 30 May 15:00:09 15:02:12 13° 89° (E) 15:04:28 437.465
BEESAT 30 May 15:02:22 15:07:08 65° 286° (WNW) 15:11:51 436.000
SWISSCUBE 30 May 15:11:38 15:16:15 48° 288° (WNW) 15:20:50 437.505
GONETS M04 30 May 15:16:13 15:22:53 22° 299° (WNW) 15:29:12
Gurwin Techsat 1B 30 May 15:22:01 15:26:45 32° 265° (W) 15:31:28 435.225
HORYU 2 30 May 15:32:04 15:36:30 63° 74° (ENE) 15:40:57 437.375
O/OREOS (USA 219) 30 May 15:36:49 15:41:16 59° 295° (WNW) 15:45:44 437.305
KKS-1 30 May 15:40:09 15:44:35 59° 101° (E) 15:48:59 437.445
RS-15 30 May 15:45:10 15:55:28 37° 34° (NE) 16:06:21 29.354- 29.394
Cosmos 2499 30 May 15:49:01 15:56:50 54° 283° (WNW) 16:04:05 435.465 / 435.565
AO-7 30 May 15:58:15 16:06:34 89° 252° (WSW) 16:14:57 29.400- 29.500
ITAMSAT 1 30 May 16:03:57 16:06:17 13° 273° (W) 16:08:19 435.822/435.867
JAS-2 30 May 16:10:05 16:16:35 65° 258° (WSW) 16:22:20 435.910
STARS 30 May 16:34:44 16:39:06 57° 287° (WNW) 16:43:23 437.465
BEESAT 2 30 May 16:43:52 16:47:13 25° 114° (ESE) 16:50:41 435.950
YUBILEINY 30 May 17:01:00 17:07:29 23° 63° (ENE) 17:14:16 435.215
AIST 2 30 May 17:01:44 17:02:48 11° 109° (ESE) 17:04:08 435.215
CUTE-I 30 May 17:04:23 17:07:58 19° 63° (ENE) 17:11:45 437.470
HORYU 2 30 May 17:11:34 17:13:38 13° 271° (W) 17:15:27 437.375
Cosmos 2491 30 May 17:14:31 17:15:04 10° 74° (ENE) 17:16:26 435.465 / 435.565
KKS-1 30 May 17:18:14 17:20:47 15° 296° (WNW) 17:23:10 437.445
Cubesat XI-IV 30 May 17:25:11 17:29:39 29° 66° (ENE) 17:34:14 437.490
BEESAT 3 30 May 17:26:36 17:30:41 90° 132° (SE) 17:34:50 437.485
MOZHAYETS 4 30 May 17:37:36 17:42:12 89° 103° (ESE) 17:46:48
CUBESAT XI-V 30 May 17:53:25 17:54:12 10° 86° (E) 17:55:19 437.345
AO-7 30 May 17:55:06 18:00:38 18° 272° (W) 18:05:42 29.400- 29.500
RS-15 30 May 17:57:41 18:09:22 83° 239° (WSW) 18:21:30 29.354- 29.394
BEESAT 2 30 May 18:21:26 18:25:12 33° 311° (NW) 18:28:58 435.950
AIST 2 30 May 18:36:35 18:40:51 75° 304° (NW) 18:45:09 435.215
CUTE-I 30 May 18:42:23 18:47:38 60° 259° (W) 18:52:55 437.470
YUBILEINY 30 May 18:56:43 19:05:26 78° 265° (W) 19:14:05 435.215
Cosmos 2491 30 May 19:01:43 19:10:17 62° 92° (E) 19:18:59 435.465 / 435.565
Cubesat XI-IV 30 May 19:04:43 19:09:39 37° 263° (W) 19:14:34 437.490
PRISM 30 May 19:06:21 19:09:45 24° 95° (E) 19:13:13 437.425
BEESAT 3 30 May 19:07:17 19:09:19 13° 322° (NW) 19:11:14 437.485
GOMX 1 30 May 19:07:52 19:11:14 18° 63° (ENE) 19:14:51 467.674
STRAND 1 30 May 19:08:54 19:13:12 27° 94° (E) 19:17:33 437.568
MOZHAYETS 4 30 May 19:17:58 19:18:48 10° 299° (WNW) 19:19:22
BRITE-PL 30 May 19:24:28 19:29:14 36° 69° (ENE) 19:34:19 437.365/2234.400
CUBESAT XI-V 30 May 19:27:36 19:32:20 80° 284° (WNW) 19:37:03 437.345
Cosmos 2504 30 May 19:30:32 19:34:58 18° 62° (ENE) 19:39:43 435.465 / 435.565
DOVE 4 30 May 19:47:42 19:51:57 26° 67° (ENE) 19:56:22 437.250
HO-68 30 May 19:52:57 19:59:37 45° 66° (ENE) 20:06:23 435.675
RS-15 30 May 20:12:13 20:20:27 21° 258° (WSW) 20:28:07 29.354- 29.394
CANX-2 30 May 20:16:26 20:20:27 43° 73° (ENE) 20:24:30 2200.000
AIST 2 30 May 20:18:26 20:20:13 12° 324° (NW) 20:21:54 435.215
CUTE 1.7 + AOD 2 30 May 20:19:22 20:23:22 42° 72° (ENE) 20:27:23 437.475
AIST 1 30 May 20:31:30 20:35:46 88° 277° (W) 20:40:06
CINEMA 3 30 May 20:32:18 20:36:44 34° 70° (ENE) 20:41:16 145.822/145.860
SEEDS 30 May 20:35:18 20:39:23 52° 74° (ENE) 20:43:29 437.485
PRISM 30 May 20:41:35 20:45:12 28° 291° (WNW) 20:48:45 437.425
COMPASS 1 30 May 20:41:51 20:45:53 49° 73° (ENE) 20:49:56 437.405
ZACube-1 30 May 20:41:55 20:44:02 13° 64° (ENE) 20:46:20 437.345
Oscar 11 30 May 20:43:32 20:46:48 22° 68° (ENE) 20:50:10 145.826/435.025
GOMX 1 30 May 20:43:33 20:48:46 69° 259° (W) 20:54:16 467.674
M-CUBED/EXP-1 PRIME 30 May 20:47:14 20:50:33 76° 287° (WNW) 20:53:54 437.505
STRAND 1 30 May 20:47:45 20:52:31 38° 291° (WNW) 20:57:13 437.568
AAUSAT CUBESAT 2 30 May 20:50:22 20:54:24 52° 74° (ENE) 20:58:27 437.432
DELFI C3 30 May 20:51:11 20:53:50 18° 67° (ENE) 20:56:36 145.870
AUBIESAT-1 30 May 20:51:22 20:54:40 79° 290° (WNW) 20:58:02 437.475
CUBEBUG 2 30 May 20:56:23 21:00:26 29° 69° (ENE) 21:04:33 437.445
YUBILEINY 30 May 20:56:31 21:00:57 14° 283° (WNW) 21:04:48 435.215
Cosmos 2491 30 May 21:00:11 21:07:49 31° 294° (WNW) 21:15:18 435.465 / 435.565
BRITE-PL 30 May 21:03:07 21:07:47 31° 267° (W) 21:12:38 437.365/2234.400
ISS 30 May 21:17:21 21:19:21 16° 133° (SE) 21:21:26 145.825
Cosmos 2504 30 May 21:22:12 21:29:25 82° 264° (W) 21:36:40 435.465 / 435.565
DOVE 4 30 May 21:24:32 21:29:28 42° 264° (W) 21:34:31 437.250
FUNcube-1 30 May 21:33:13 21:37:32 42° 72° (ENE) 21:41:49 145.935
UWE-3 30 May 21:34:15 21:38:50 56° 74° (ENE) 21:43:24 435.000/436.395/437.385
50 SAT 30 May 21:36:26 21:37:24 11° 64° (ENE) 21:38:36 437.505
HUMSAT D 30 May 21:36:26 21:39:39 21° 68° (ENE) 21:42:57 437.325/437.525
HO-68 30 May 21:40:54 21:47:29 37° 264° (W) 21:53:59 435.675
AISAT 30 May 21:52:32 21:55:33 19° 65° (ENE) 21:58:44 437.250
CANX-2 30 May 21:53:52 21:56:39 16° 269° (W) 21:59:16 2200.000
CUTE 1.7 + AOD 2 30 May 21:56:41 21:59:31 17° 269° (W) 22:02:13 437.475
DANDE 30 May 22:05:53 22:09:05 13° 51° (NE) 22:12:24 436.750
CUSAT 1 30 May 22:08:29 22:12:10 15° 54° (NE) 22:15:42 437.405
UKube-1 30 May 22:08:42 22:12:49 46° 72° (ENE) 22:17:01 .
CINEMA 3 30 May 22:09:32 22:13:56 29° 266° (W) 22:18:18 145.822/145.860
SEEDS 30 May 22:13:21 22:15:33 13° 271° (W) 22:17:33 437.485
ZACube-1 30 May 22:15:19 22:19:54 69° 259° (W) 22:24:28 437.345
Oscar 11 30 May 22:18:50 22:22:48 34° 263° (W) 22:26:46 145.826/435.025
COMPASS 1 30 May 22:19:36 22:21:53 14° 270° (W) 22:24:00 437.405
DX 1 30 May 22:23:31 22:27:52 73° 76° (ENE) 22:32:15 434.975-435.025
DELFI C3 30 May 22:24:56 22:28:42 37° 263° (W) 22:32:27 145.870
TIGRISAT 30 May 22:27:35 22:29:53 14° 89° (E) 22:32:21 435.000
AAUSAT CUBESAT 2 30 May 22:28:21 22:30:24 13° 271° (W) 22:32:14 437.432
CUBEBUG 2 30 May 22:32:50 22:37:05 30° 265° (W) 22:41:14 437.445
CUBEBUG 1 30 May 22:40:48 22:44:30 28° 69° (ENE) 22:48:18 437.445
UNISAT 6 30 May 22:48:56 22:52:32 26° 94° (E) 22:56:09 437.425
DUCHIFAT 1 30 May 22:51:30 22:52:48 11° 88° (E) 22:54:20 145.980
ISS 30 May 22:52:15 22:55:28 61° 327° (NNW) 22:58:42 145.825
POPSAT HIP 1 30 May 22:52:48 22:54:28 12° 88° (E) 22:56:22 437.405
VELOX 1 30 May 22:54:06 22:58:32 77° 75° (ENE) 23:03:00 145.980
SPROUT 30 May 23:04:39 23:06:59 15° 65° (ENE) 23:09:30 437.525
50 SAT 30 May 23:07:40 23:11:39 65° 260° (W) 23:15:36 437.505
FUNcube-1 30 May 23:10:41 23:14:03 19° 268° (W) 23:17:17 145.935
HUMSAT D 30 May 23:11:14 23:15:13 35° 263° (W) 23:19:09 437.325/437.525
TISAT 1 30 May 23:11:48 23:13:36 13° 63° (ENE) 23:15:35 437.305
UWE-3 30 May 23:12:55 23:15:45 15° 271° (W) 23:18:22 435.000/436.395/437.385
ESTCUBE 1 30 May 23:13:43 23:18:10 74° 76° (ENE) 23:22:41 437.505/2401.250
Cosmos 2504 30 May 23:18:48 23:21:44 12° 281° (W) 23:24:10 435.465 / 435.565
GONETS M04 30 May 23:26:03 23:34:16 43° 72° (ENE) 23:42:29
AISAT 30 May 23:27:33 23:31:51 45° 262° (W) 23:36:09 437.250
ANTELSAT 30 May 23:31:53 23:36:15 78° 102° (ESE) 23:40:31 437.575/2403.000
QB50P1 30 May 23:34:33 23:38:31 36° 97° (E) 23:42:28 145.935-145.965
POLYITAN 1 30 May 23:38:55 23:42:58 41° 98° (E) 23:47:00 437.675
UKube-1 30 May 23:46:30 23:49:16 16° 269° (W) 23:51:52 .
DANDE 30 May 23:46:49 23:54:23 70° 77° (ENE) 00:00:08 436.750
CUSAT 1 30 May 23:49:29 23:56:23 89° 269° (W) 00:01:33 437.405
PCSat 30 May 23:56:51 00:02:03 52° 115° (ESE) 00:07:20 145.827
TIGRISAT 31 May 00:02:48 00:07:02 49° 287° (WNW) 00:11:09 435.000
NANOSAT C BR1 31 May 00:04:04 00:08:22 79° 103° (ESE) 00:12:36 145.865
DX 1 31 May 00:04:13 00:04:44 10° 273° (W) 00:04:57 434.975-435.025
O/OREOS (USA 219) 31 May 00:07:28 00:11:20 28° 58° (ENE) 00:15:15 437.305
VERMONT LUNAR 31 May 00:07:28 00:10:06 23° 156° (SSE) 00:12:45 437.305
QB50P2 31 May 00:15:22 00:19:40 75° 285° (WNW) 00:23:54 145.880/145.840
CUBEBUG 1 31 May 00:17:05 00:20:50 27° 266° (W) 00:24:34 437.445
DUCHIFAT 1 31 May 00:24:53 00:29:07 62° 286° (WNW) 00:33:17 145.980
UNISAT 6 31 May 00:25:34 00:29:19 28° 291° (WNW) 00:32:57 437.425
POPSAT HIP 1 31 May 00:26:35 00:30:48 58° 286° (WNW) 00:34:59 437.405
BUGSAT 1 31 May 00:28:18 00:32:36 83° 285° (WNW) 00:36:50 437.445
ITUPSAT 1 31 May 00:28:52 00:31:36 16° 63° (ENE) 00:34:31 437.325
ISS 31 May 00:30:01 00:32:23 18° 347° (NNW) 00:34:44 145.825
BEESAT 31 May 00:33:21 00:36:25 18° 64° (ENE) 00:39:38 436.000
SPROUT 31 May 00:38:25 00:42:40 55° 260° (W) 00:46:57 437.525
SWISSCUBE 31 May 00:41:54 00:45:32 23° 66° (ENE) 00:49:18 437.505
TISAT 1 31 May 00:44:40 00:48:54 64° 259° (W) 00:53:09 437.305
ESTCUBE 1 31 May 00:54:39 00:55:41 10° 273° (W) 00:56:26 437.505/2401.250
BEESAT 2 31 May 01:02:27 01:05:35 21° 44° (NE) 01:08:45 435.950
QB50P1 31 May 01:10:57 01:14:10 20° 293° (WNW) 01:17:16 145.935-145.965
ANTELSAT 31 May 01:11:22 01:12:27 11° 298° (WNW) 01:13:18 437.575/2403.000
POLYITAN 1 31 May 01:15:36 01:18:36 18° 294° (WNW) 01:21:28 437.675
AIST 2 31 May 01:21:13 01:22:57 12° 36° (NE) 01:24:49 435.215
GONETS M04 31 May 01:23:01 01:31:10 43° 272° (W) 01:39:07
SO-50 31 May 01:23:58 01:27:11 19° 111° (ESE) 01:30:36 436.795
PHONESAT 2.4 31 May 01:28:14 01:31:13 26° 157° (SSE) 01:34:13 2401.200-2431.200
DANDE 31 May 01:31:31 01:36:35 20° 280° (W) 01:40:39 436.750
CUSAT 1 31 May 01:35:04 01:37:37 12° 283° (WNW) 01:39:36 437.405
Cosmos 2499 31 May 01:39:06 01:45:58 52° 76° (ENE) 01:53:01 435.465 / 435.565
PCSat 31 May 01:41:14 01:45:47 26° 314° (NW) 01:50:19 145.827
NANOSAT C BR1 31 May 01:42:42 01:43:37 10° 298° (WNW) 01:44:19 145.865
VERMONT LUNAR 31 May 01:43:47 01:46:59 59° 172° (S) 01:50:10 437.305
BEESAT 3 31 May 01:44:59 01:49:02 60° 54° (NE) 01:53:01 437.485
O/OREOS (USA 219) 31 May 01:46:52 01:50:43 28° 255° (WSW) 01:54:31 437.305
STARS 31 May 01:57:52 02:00:04 14° 63° (ENE) 02:02:29 437.465
Gurwin Techsat 1B 31 May 01:59:44 02:01:34 12° 86° (E) 02:03:44 435.225
ITUPSAT 1 31 May 02:04:21 02:09:03 61° 259° (W) 02:13:47 437.325
ISS 31 May 02:07:35 02:09:42 16° 7° (N) 02:11:51 145.825
BEESAT 31 May 02:09:14 02:13:53 53° 260° (W) 02:18:34 436.000
Oscar 19 31 May 02:09:36 02:14:39 54° 100° (E) 02:19:41 437.125/150
SWISSCUBE 31 May 02:18:44 02:23:12 39° 262° (W) 02:27:39 437.505
ITAMSAT 1 31 May 02:33:50 02:38:12 27° 94° (E) 02:42:38 435.822/435.867
KKS-1 31 May 02:38:27 02:42:51 56° 73° (ENE) 02:47:17 437.445
BEESAT 2 31 May 02:39:59 02:43:54 44° 242° (WSW) 02:47:44 435.950
AIST 2 31 May 02:58:03 03:02:18 80° 56° (NE) 03:06:27 435.215
SO-50 31 May 03:02:43 03:07:20 54° 308° (NW) 03:12:08 436.795
PHONESAT 2.4 31 May 03:05:35 03:09:03 63° 173° (S) 03:12:30 2401.200-2431.200
JAS-2 31 May 03:20:45 03:22:45 12° 88° (E) 03:25:06 435.910
VERMONT LUNAR 31 May 03:20:52 03:24:03 59° 189° (S) 03:27:13 437.305
BEESAT 3 31 May 03:24:41 03:26:34 13° 250° (WSW) 03:28:15 437.485
HORYU 2 31 May 03:25:20 03:26:36 11° 88° (E) 03:28:09 437.375
STARS 31 May 03:31:40 03:36:04 63° 259° (W) 03:40:31 437.465
Cosmos 2499 31 May 03:33:00 03:38:46 27° 274° (W) 03:44:27 435.465 / 435.565
Gurwin Techsat 1B 31 May 03:36:59 03:42:20 84° 286° (WNW) 03:47:40 435.225
ISS 31 May 03:43:41 03:46:47 39° 27° (NNE) 03:49:52 145.825
Oscar 19 31 May 03:49:54 03:53:39 20° 296° (WNW) 03:57:13 437.125/150
AO-7 31 May 04:00:01 04:07:02 30° 94° (E) 04:14:14 29.400- 29.500
ITAMSAT 1 31 May 04:12:58 04:17:49 39° 291° (WNW) 04:22:37 435.822/435.867
KKS-1 31 May 04:17:26 04:19:55 14° 271° (W) 04:22:11 437.445
MOZHAYETS 4 31 May 04:39:41 04:44:16 87° 77° (ENE) 04:48:51
PHONESAT 2.4 31 May 04:43:36 04:47:03 60° 190° (S) 04:50:29 2401.200-2431.200
SO-50 31 May 04:47:16 04:49:04 12° 330° (NNW) 04:50:43 436.795
CUBESAT XI-V 31 May 04:57:22 04:58:56 12° 62° (ENE) 05:00:45 437.345
VERMONT LUNAR 31 May 04:58:19 05:00:56 23° 204° (SSW) 05:03:31 437.305
HORYU 2 31 May 04:59:23 05:03:48 67° 286° (WNW) 05:08:10 437.375
JAS-2 31 May 05:03:23 05:08:35 75° 286° (WNW) 05:14:02 435.910
Cosmos 2491 31 May 05:11:58 05:19:29 31° 67° (ENE) 05:27:09 435.465 / 435.565
Gurwin Techsat 1B 31 May 05:19:29 05:21:35 12° 301° (WNW) 05:23:25 435.225
ISS 31 May 05:20:17 05:23:06 27° 224° (SW) 05:25:54 145.825
Cubesat XI-IV 31 May 05:45:05 05:45:20 10° 85° (E) 05:45:59 437.490
